Weather History for KBDL - September, 2013

Change the Weather History Date:

Monday, September 23, 2013

  Actual Average Record
Temperature  
Mean Temperature 54 °F 61 °F  
Max Temperature 64 °F 72 °F 93 °F (1914)
Min Temperature 44 °F 50 °F 34 °F (1974)
Degree Days  
Heating Degree Days 11 5  
Month to date heating degree days 82 62  
Since 1 July heating degree days 84 74  
Cooling Degree Days 0 1  
Month to date cooling degree days 62 69  
Year to date cooling degree days 886 744  
Growing Degree Days 4 (Base 50)    
Moisture  
Dew Point 41 °F    
Average Humidity 62    
Maximum Humidity 83    
Minimum Humidity 40    
Precipitation  
Precipitation 0.00 in 0.14 in 3.99 in (1907)
Month to date precipitation 3.58 2.83  
Year to date precipitation 41.58 33.10  
Snow  
Snow 0.00 in 0.00 in 0.00 in (2002)
Month to date snowfall 0.0 0.0  
Since 1 July snowfall 0.0 0.0  
Since 1 September snowfall 0.0 0.0  
Snow Depth 0.00 in    
Sea Level Pressure  
Sea Level Pressure 29.95 in    
Wind  
Wind Speed 8 mph (NW)    
Max Wind Speed 17 mph    
Max Gust Speed 25 mph    
Visibility 10 miles    
Events      
T = Trace of Precipitation, MM = Missing Value Source: NWS Daily Summary

Daily Weather History Graph

Daily Weather History Graph

Search for Another Location

Airport or City:

Trip Planner

Search our weather history database for the weather conditions in past years. The results will help you decide how hot, cold, wet, or windy it might be!

Date:

Astronomy

Sep. 23, 2013 Rise Set
Actual Time 6:39 AM EDT 6:45 PM EDT
Civil Twilight 6:11 AM EDT 7:13 PM EDT
Nautical Twilight 5:38 AM EDT 7:46 PM EDT
Astronomical Twilight 5:05 AM EDT 8:19 PM EDT
Moon 9:11 PM EDT (9/23) 11:00 AM EDT (9/23)
Length of Visible Light 13h 02m
Length of Day
12h 06m
Waning Gibbous, 81% of the Moon is Illuminated
Sep 23
Waning Gibbous
Sep 26
Last Quarter
Oct 4
New
Oct 11
First Quarter
Oct 18
Full

Hourly Weather History & Observations

Time (EDT) Temp. Windchill Dew Point Humidity Pressure Visibility Wind Dir Wind Speed Gust Speed Precip Events Conditions
12:51 AM 51.1 °F - 42.1 °F 71% 29.88 in 10.0 mi NW 5.8 mph - N/A   Partly Cloudy
1:51 AM 50.0 °F - 42.1 °F 74% 29.89 in 10.0 mi NW 6.9 mph - N/A   Clear
2:51 AM 48.0 °F - 42.1 °F 80% 29.89 in 10.0 mi Calm Calm - N/A   Clear
3:51 AM 46.0 °F 43.9 °F 41.0 °F 83% 29.91 in 10.0 mi West 4.6 mph - N/A   Clear
4:51 AM 46.0 °F 44.8 °F 39.9 °F 79% 29.92 in 10.0 mi WNW 3.5 mph - N/A   Clear
5:51 AM 45.0 °F 41.2 °F 39.9 °F 82% 29.93 in 10.0 mi West 6.9 mph - N/A   Clear
6:51 AM 44.1 °F 39.5 °F 39.0 °F 82% 29.95 in 10.0 mi NW 8.1 mph - N/A   Clear
7:51 AM 48.0 °F - 41.0 °F 77% 29.97 in 10.0 mi NW 8.1 mph - N/A   Clear
8:51 AM 52.0 °F - 41.0 °F 66% 29.97 in 10.0 mi NW 9.2 mph - N/A   Partly Cloudy
9:51 AM 54.0 °F - 37.9 °F 55% 29.96 in 10.0 mi NNW 13.8 mph 20.7 mph N/A   Partly Cloudy
10:51 AM 57.0 °F - 37.9 °F 49% 29.96 in 10.0 mi NNW 11.5 mph 19.6 mph N/A   Partly Cloudy
11:51 AM 60.1 °F - 39.9 °F 47% 29.96 in 10.0 mi NW 9.2 mph - N/A   Partly Cloudy
12:51 PM 62.1 °F - 39.0 °F 43% 29.96 in 10.0 mi WNW 13.8 mph - N/A   Partly Cloudy
1:51 PM 63.0 °F - 41.0 °F 45% 29.94 in 10.0 mi NW 12.7 mph - N/A   Partly Cloudy
2:51 PM 62.1 °F - 39.9 °F 44% 29.94 in 10.0 mi NW 9.2 mph 16.1 mph N/A   Partly Cloudy
3:51 PM 64.0 °F - 39.9 °F 41% 29.94 in 10.0 mi NW 11.5 mph - N/A   Partly Cloudy
4:51 PM 62.1 °F - 39.9 °F 44% 29.94 in 10.0 mi NNW 12.7 mph - N/A   Partly Cloudy
5:51 PM 61.0 °F - 42.1 °F 50% 29.96 in 10.0 mi NW 8.1 mph - N/A   Partly Cloudy
6:51 PM 55.0 °F - 43.0 °F 64% 29.97 in 10.0 mi NW 8.1 mph - N/A   Clear
7:51 PM 52.0 °F - 44.1 °F 74% 30.00 in 10.0 mi WNW 3.5 mph - N/A   Clear
8:51 PM 51.1 °F - 43.0 °F 74% 30.00 in 10.0 mi NW 6.9 mph - N/A   Clear
9:51 PM 50.0 °F - 43.0 °F 77% 30.01 in 10.0 mi NW 6.9 mph - N/A   Clear
10:51 PM 48.0 °F - 42.1 °F 80% 30.03 in 10.0 mi NNW 5.8 mph - N/A   Partly Cloudy
11:51 PM 48.9 °F - 43.0 °F 80% 30.04 in 10.0 mi NNW 3.5 mph - N/A   Mostly Cloudy